EW6055 Weather Reports


Display with metric or nautical units.
time (UTC)temp
F
wind
direction
speed
MPH
gust
MPH
rain 1hr
in
rain 24hr
in
rain mn
in
humidity
%
barometer
mb
20260504003002 93 307 1.0 5.0 0.00 0.00 0.00 23 1005.1
20260504002502 93 317 1.0 4.0 0.00 0.00 0.00 24 1005.2
20260504002002 93 309 1.0 4.0 0.00 0.00 0.00 24 1005.2
20260504001504 93 299 1.0 8.0 0.00 0.00 0.00 24 1005.2
20260504001002 93 299 1.0 8.0 0.00 0.00 0.00 23 1005.2
20260504000502 93 296 1.0 5.0 0.00 0.00 0.00 23 1005.1
20260504000002 93 301 1.0 6.0 0.00 0.00 0.00 23 1005.1
20260503235503 93 305 2.0 6.0 0.00 0.00 0.00 23 1005.1
20260503235002 93 312 2.0 6.0 0.00 0.00 0.00 23 1005.2
20260503234502 93 309 1.0 6.0 0.00 0.00 0.00 23 1005.2
20260503234023 93 297 1.0 6.0 0.00 0.00 0.00 23 1005.3
20260503233502 94 287 1.0 6.0 0.00 0.00 0.00 22 1005.3
20260503233002 94 299 1.0 8.0 0.00 0.00 0.00 22 1005.4
20260503232502 94 310 2.0 8.0 0.00 0.00 0.00 23 1005.5
20260503232002 94 321 1.0 8.0 0.00 0.00 0.00 23 1005.6
20260503231503 94 327 2.0 8.0 0.00 0.00 0.00 23 1005.6
20260503231002 94 333 1.0 6.0 0.00 0.00 0.00 24 1005.7
20260503230502 95 319 1.0 4.0 0.00 0.00 0.00 24 1005.7
20260503230003 95 313 1.0 4.0 0.00 0.00 0.00 24 1005.9
20260503225523 95 321 1.0 5.0 0.00 0.00 0.00 25 1005.9
20260503225002 94 317 2.0 6.0 0.00 0.00 0.00 25 1005.9
20260503224503 94 300 1.0 6.0 0.00 0.00 0.00 26 1006.0
20260503224002 94 293 1.0 4.0 0.00 0.00 0.00 25 1006.1
20260503223502 94 293 1.0 4.0 0.00 0.00 0.00 27 1006.2
20260503223002 94 293 1.0 4.0 0.00 0.00 0.00 27 1006.2
20260503222502 94 308 1.0 5.0 0.00 0.00 0.00 26 1006.3
20260503222002 94 314 1.0 6.0 0.00 0.00 0.00 28 1006.3
20260503221502 94 303 1.0 7.0 0.00 0.00 0.00 28 1006.5
20260503221023 93 292 1.0 7.0 0.00 0.00 0.00 28 1006.6
20260503220503 93 297 1.0 3.0 0.00 0.00 0.00 28 1006.6
20260503220002 93 322 1.0 5.0 0.00 0.00 0.00 29 1006.8
20260503215523 93 335 1.0 5.0 0.00 0.00 0.00 29 1006.8
20260503215002 93 318 1.0 4.0 0.00 0.00 0.00 29 1006.9
20260503214524 92 312 1.0 4.0 0.00 0.00 0.00 31 1007.0
20260503214003 92 327 1.0 5.0 0.00 0.00 0.00 31 1007.0
20260503213502 91 334 1.0 5.0 0.00 0.00 0.00 30 1007.1
20260503213002 91 339 1.0 5.0 0.00 0.00 0.00 31 1007.1
20260503212503 91 327 1.0 6.0 0.00 0.00 0.00 33 1007.2
20260503212003 91 321 1.0 6.0 0.00 0.00 0.00 32 1007.2
20260503211502 90 335 1.0 6.0 0.00 0.00 0.00 32 1007.3
20260503211002 90 322 1.0 5.0 0.00 0.00 0.00 32 1007.3
20260503210503 90 323 1.0 3.0 0.00 0.00 0.00 35 1007.3
20260503210002 89 326 1.0 3.0 0.00 0.00 0.00 35 1007.4
20260503205502 89 321 1.0 5.0 0.00 0.00 0.00 35 1007.5
20260503205002 88 328 1.0 7.0 0.00 0.00 0.00 35 1007.5
20260503204503 88 334 1.0 7.0 0.00 0.00 0.00 37 1007.6
20260503204002 88 330 1.0 5.0 0.00 0.00 0.00 36 1007.7
20260503203502 88 333 1.0 4.0 0.00 0.00 0.00 36 1007.8
20260503203002 88 334 1.0 5.0 0.00 0.00 0.00 37 1007.8
20260503202502 87 337 1.0 6.0 0.00 0.00 0.00 38 1007.9
20260503202002 87 345 1.0 6.0 0.00 0.00 0.00 38 1008.0
20260503201502 87 341 1.0 4.0 0.00 0.00 0.00 37 1008.0
20260503201023 87 340 1.0 4.0 0.00 0.00 0.00 38 1008.0
20260503200502 87 339 1.0 5.0 0.00 0.00 0.00 37 1008.1
20260503200002 86 338 1.0 5.0 0.00 0.00 0.00 39 1008.1
20260503195502 85 334 1.0 5.0 0.00 0.00 0.00 41 1008.2
20260503195002 84 336 1.0 5.0 0.00 0.00 0.00 41 1008.3
20260503194502 84 345 1.0 5.0 0.00 0.00 0.00 42 1008.3
20260503194002 83 343 1.0 5.0 0.00 0.00 0.00 43 1008.4
20260503193502 82 340 1.0 4.0 0.00 0.00 0.00 42 1008.5
20260503193002 82 333 1.0 4.0 0.00 0.00 0.00 43 1008.5
20260503192502 81 331 1.0 5.0 0.00 0.00 0.00 46 1008.6
20260503192003 81 337 1.0 5.0 0.00 0.00 0.00 45 1008.6
20260503191523 80 337 1.0 5.0 0.00 0.00 0.00 46 1008.6
20260503191023 80 336 1.0 5.0 0.00 0.00 0.00 46 1008.7
20260503190502 80 326 1.0 4.0 0.00 0.00 0.00 47 1008.8
20260503190002 79 324 2.0 6.0 0.00 0.00 0.00 48 1008.9
20260503185502 79 338 1.0 6.0 0.00 0.00 0.00 49 1009.0
20260503185002 79 339 1.0 4.0 0.00 0.00 0.00 49 1009.0
20260503184502 78 325 1.0 4.0 0.00 0.00 0.00 50 1009.1
20260503184002 78 328 2.0 6.0 0.00 0.00 0.00 51 1009.2
20260503183502 77 335 1.0 6.0 0.00 0.00 0.00 52 1009.2
20260503183023 77 335 1.0 6.0 0.00 0.00 0.00 52 1009.2
20260503182502 76 328 1.0 6.0 0.00 0.00 0.00 54 1009.2
20260503182002 75 334 1.0 6.0 0.00 0.00 0.00 56 1009.3
20260503181503 74 338 1.0 6.0 0.00 0.00 0.00 56 1009.3
20260503181002 74 335 1.0 6.0 0.00 0.00 0.00 56 1009.4
20260503180502 74 329 1.0 5.0 0.00 0.00 0.00 56 1009.3
20260503180003 74 332 1.0 12.0 0.00 0.00 0.00 57 1009.4
20260503175502 73 341 1.0 12.0 0.00 0.00 0.00 58 1009.4
20260503175002 73 338 1.0 5.0 0.00 0.00 0.00 59 1009.4
20260503174502 73 336 1.0 3.0 0.00 0.00 0.00 58 1009.5
20260503174002 72 334 1.0 3.0 0.00 0.00 0.00 60 1009.5
20260503173502 72 331 1.0 3.0 0.00 0.00 0.00 60 1009.5
20260503173002 71 333 1.0 3.0 0.00 0.00 0.00 62 1009.4
20260503172523 71 332 1.0 3.0 0.00 0.00 0.00 62 1009.6
20260503172023 70 334 1.0 6.0 0.00 0.00 0.00 63 1009.6
20260503171502 70 336 1.0 6.0 0.00 0.00 0.00 64 1009.6
20260503171002 70 338 1.0 6.0 0.00 0.00 0.00 64 1009.6
20260503170502 69 339 1.0 5.0 0.00 0.00 0.00 66 1009.7
20260503151002 58 331 1.0 6.0 0.00 0.00 0.00 89 1010.1
20260503150502 58 337 1.0 5.0 0.00 0.00 0.00 89 1010.1
20260503131002 54 320 0.0 5.0 0.00 0.00 0.00 94 1009.7
20260503130502 54 323 1.0 4.0 0.00 0.00 0.00 93 1009.7
20260503110502 54 0 0.0 0.0 0.00 0.00 0.00 93 1010.0
20260503090502 55 0 0.0 0.0 0.00 0.00 0.00 91 1010.4
20260503081502 56 0 0.0 0.0 0.00 0.02 0.00 89 1010.5
20260503081023 56 0 0.0 0.0 0.00 0.03 0.00 89 1010.6
20260503080502 56 0 0.0 0.0 0.00 0.03 0.00 88 1010.5
20260503072523 57 0 0.0 0.0 0.00 0.03 0.00 87 1010.6
20260503072023 57 0 0.0 0.0 0.00 0.03 0.00 87 1010.6
20260503071502 57 0 0.0 0.0 0.00 0.03 0.00 87 1010.6
20260503071002 57 0 0.0 0.0 0.00 0.03 0.00 87 1010.6
20260503070502 57 0 0.0 0.0 0.00 0.03 0.00 86 1010.7
20260503055002 60 0 0.0 0.0 0.00 0.03 0.03 81 1010.8
20260503054502 60 0 0.0 0.0 0.00 0.03 0.03 82 1010.8
20260503054002 60 333 0.0 1.0 0.00 0.03 0.03 81 1010.9
20260503053502 61 333 0.0 1.0 0.00 0.03 0.03 81 1010.7
20260503053002 61 332 0.0 1.0 0.00 0.03 0.03 80 1010.6
20260503052502 61 332 0.0 1.0 0.00 0.03 0.03 80 1010.6
20260503052002 61 333 0.0 1.0 0.00 0.03 0.03 80 1010.5
20260503051502 61 333 0.0 1.0 0.00 0.03 0.03 80 1010.6
20260503051002 61 332 0.0 1.0 0.00 0.03 0.03 80 1010.5
20260503050502 61 319 0.0 3.0 0.00 0.03 0.03 80 1010.5
20260503050002 61 321 1.0 3.0 0.00 0.03 0.03 81 1010.4
20260503045502 62 326 1.0 5.0 0.00 0.03 0.03 80 1010.5
20260503045023 62 332 1.0 5.0 0.00 0.03 0.03 80 1010.5
20260503044503 62 330 1.0 6.0 0.00 0.03 0.03 80 1010.4
20260503044002 62 325 1.0 6.0 0.00 0.03 0.03 80 1010.4
20260503043523 62 330 0.0 5.0 0.00 0.03 0.03 79 1010.5
20260503043002 62 0 0.0 0.0 0.00 0.03 0.03 79 1010.6
20260503042523 62 0 0.0 0.0 0.00 0.03 0.03 78 1010.6
20260503042003 62 0 0.0 0.0 0.00 0.03 0.03 78 1010.5
20260503041503 62 336 0.0 1.0 0.00 0.03 0.03 78 1010.3
20260503041002 62 340 0.0 3.0 0.00 0.03 0.03 78 1010.3
20260503040502 63 343 0.0 3.0 0.00 0.03 0.03 77 1010.2
20260503040002 63 345 0.0 2.0 0.00 0.03 0.03 77 1010.3
20260503035502 63 0 0.0 0.0 0.00 0.03 0.03 76 1010.3
20260503035002 63 0 0.0 0.0 0.00 0.03 0.03 76 1010.3
20260503034502 63 0 0.0 0.0 0.00 0.03 0.03 76 1010.4
20260503034002 63 0 0.0 0.0 0.00 0.03 0.03 76 1010.3
20260503033502 64 0 0.0 0.0 0.00 0.03 0.03 75 1010.3
20260503033002 64 43 0.0 2.0 0.00 0.03 0.03 75 1010.4
20260503032502 64 61 0.0 2.0 0.00 0.03 0.03 75 1010.4
20260503032002 64 67 0.0 2.0 0.00 0.03 0.03 75 1010.4
20260503031502 64 74 0.0 1.0 0.00 0.03 0.03 74 1010.3
20260503031002 64 0 0.0 0.0 0.00 0.03 0.03 74 1010.2
20260503030502 64 0 0.0 0.0 0.00 0.03 0.03 74 1010.2
20260503030003 64 0 0.0 0.0 0.00 0.03 0.03 74 1010.2
20260503025502 64 0 0.0 0.0 0.00 0.03 0.03 73 1010.1
20260503025002 65 0 0.0 0.0 0.00 0.03 0.03 73 1010.1
20260503024502 64 0 0.0 0.0 0.00 0.03 0.03 73 1010.0
20260503024002 64 209 0.0 1.0 0.00 0.03 0.03 73 1009.9
20260503023502 64 297 0.0 1.0 0.00 0.03 0.03 73 1010.0
20260503023002 64 283 1.0 2.0 0.00 0.03 0.03 73 1010.2
20260503022502 64 267 1.0 3.0 0.00 0.03 0.03 73 1010.2
20260503022023 64 176 1.0 3.0 0.00 0.03 0.03 74 1010.4
20260503021523 64 164 1.0 2.0 0.00 0.03 0.03 74 1010.5
20260503021002 64 145 1.0 3.0 0.00 0.03 0.03 73 1010.7
20260503020502 65 153 1.0 3.0 0.00 0.03 0.03 73 1010.7
20260503020002 65 157 1.0 3.0 0.00 0.03 0.03 72 1010.8
20260503015502 65 144 1.0 4.0 0.00 0.03 0.03 71 1010.7
20260503015002 66 138 1.0 4.0 0.00 0.03 0.03 70 1010.8
20260503014502 66 156 1.0 3.0 0.00 0.03 0.03 69 1010.4
20260503014003 67 170 1.0 3.0 0.00 0.03 0.03 68 1010.1
20260503013502 67 179 1.0 3.0 0.00 0.03 0.03 68 1010.1
20260503013003 68 185 1.0 3.0 0.00 0.03 0.03 67 1010.0
20260503012503 68 183 1.0 3.0 0.00 0.03 0.03 65 1009.9
20260503012002 69 182 1.0 2.0 0.00 0.03 0.03 64 1009.8
20260503011503 70 171 1.0 2.0 0.00 0.03 0.03 63 1009.8
20260503011023 70 171 1.0 2.0 0.00 0.03 0.03 63 1009.8
20260503010502 70 178 1.0 2.0 0.00 0.03 0.03 62 1009.7
20260503010002 71 176 1.0 3.0 0.00 0.03 0.03 61 1009.7
20260503005523 72 180 1.0 3.0 0.00 0.03 0.03 59 1009.7
20260503005002 73 0 0.0 0.0 0.00 0.03 0.03 57 1009.7
20260503004502 73 0 0.0 0.0 0.00 0.03 0.03 54 1009.7
20260503004023 73 32 0.0 1.0 0.00 0.03 0.03 54 1009.7
20260503003523 73 306 1.0 3.0 0.00 0.03 0.03 55 1009.6